timestamp,wind_dir_avg,wind_spd_avg,wind_spd_max_dir,wind_spd_gust,battery_voltage,lat,long
2023-08-29 00:04:00+00:00,250.0,6.11,255.0,6.83,12.49,47.59359,-54.27349
2023-08-29 00:14:01+00:00,248.0,5.83,240.0,7.12,12.49,47.59359,-54.27349
2023-08-29 00:24:01+00:00,253.0,5.98,246.0,6.94,12.49,47.59359,-54.27349
2023-08-29 00:34:01+00:00,254.0,7.03,252.0,8.4,12.49,47.59359,-54.27349
2023-08-29 00:44:01+00:00,255.0,7.16,257.0,7.94,12.49,47.59359,-54.27349
2023-08-29 00:54:01+00:00,249.0,5.79,252.0,7.2,12.49,47.59359,-54.27349
2023-08-29 01:04:01+00:00,255.0,6.66,257.0,7.61,12.49,47.59359,-54.27349
2023-08-29 01:14:01+00:00,245.0,7.16,247.0,8.1,12.41,47.59359,-54.27349
2023-08-29 01:24:01+00:00,247.0,6.93,248.0,7.6,12.41,47.59359,-54.27349
2023-08-29 01:34:01+00:00,246.0,6.59,246.0,7.52,12.41,47.59359,-54.27349
2023-08-29 01:44:01+00:00,253.0,6.94,254.0,7.69,12.41,47.59359,-54.27349
2023-08-29 01:54:01+00:00,258.0,6.46,255.0,7.27,12.41,47.59359,-54.27349
2023-08-29 02:04:01+00:00,260.0,6.6,260.0,7.21,12.41,47.59359,-54.27349
2023-08-29 02:14:01+00:00,265.0,6.76,268.0,7.44,12.41,47.59359,-54.27349
2023-08-29 02:24:01+00:00,264.0,7.06,265.0,7.79,12.41,47.59359,-54.27349
2023-08-29 02:34:01+00:00,259.0,6.44,245.0,7.81,12.41,47.59359,-54.27349
2023-08-29 02:44:01+00:00,264.0,6.2,264.0,7.03,12.41,47.59359,-54.27349
2023-08-29 02:54:01+00:00,265.0,6.1,265.0,6.66,12.41,47.59359,-54.27349
2023-08-29 03:04:01+00:00,254.0,6.98,257.0,7.51,12.41,47.59359,-54.27349
2023-08-29 03:14:00+00:00,265.0,5.82,262.0,6.72,12.41,47.59359,-54.27349
2023-08-29 03:24:00+00:00,257.0,6.43,254.0,7.02,12.41,47.59359,-54.27349
2023-08-29 03:34:00+00:00,263.0,6.62,264.0,7.18,12.41,47.59359,-54.27349
2023-08-29 03:44:00+00:00,260.0,6.17,262.0,6.98,12.41,47.59359,-54.27349
2023-08-29 03:54:00+00:00,257.0,6.13,261.0,6.66,12.41,47.59359,-54.27349
2023-08-29 04:04:00+00:00,254.0,6.71,250.0,7.54,12.41,47.59359,-54.27349
2023-08-29 04:14:00+00:00,252.0,5.94,252.0,6.91,12.41,47.59359,-54.27349
2023-08-29 04:24:00+00:00,254.0,7.03,248.0,7.73,12.41,47.59359,-54.27349
2023-08-29 04:34:00+00:00,254.0,6.53,254.0,7.06,12.41,47.59359,-54.27349
2023-08-29 04:44:00+00:00,256.0,6.58,256.0,7.26,12.41,47.59359,-54.27349
2023-08-29 04:54:00+00:00,259.0,5.75,255.0,6.83,12.41,47.59359,-54.27349
2023-08-29 05:04:00+00:00,253.0,7.08,256.0,8.44,12.41,47.59359,-54.27349
2023-08-29 05:14:00+00:00,257.0,6.87,257.0,7.5,12.41,47.59359,-54.27349
2023-08-29 05:24:00+00:00,258.0,5.98,263.0,6.75,12.41,47.59359,-54.27349
2023-08-29 05:34:00+00:00,249.0,5.14,250.0,5.89,12.41,47.59359,-54.27349
2023-08-29 05:44:00+00:00,244.0,6.94,246.0,7.36,12.41,47.59359,-54.27349
2023-08-29 05:54:00+00:00,240.0,7.89,239.0,8.73,12.41,47.59359,-54.27349
2023-08-29 06:04:00+00:00,245.0,7.82,242.0,8.43,12.41,47.59359,-54.27349
2023-08-29 06:14:00+00:00,252.0,8.15,249.0,8.83,12.41,47.59359,-54.27349
2023-08-29 06:24:00+00:00,254.0,7.35,253.0,7.93,12.41,47.59359,-54.27349
2023-08-29 06:34:00+00:00,258.0,6.19,258.0,6.56,12.41,47.59359,-54.27349
2023-08-29 06:44:00+00:00,256.0,5.48,255.0,6.17,12.41,47.59359,-54.27349
2023-08-29 06:54:00+00:00,258.0,6.28,258.0,7.16,12.41,47.59359,-54.27349
2023-08-29 07:04:00+00:00,265.0,6.28,267.0,7.02,12.41,47.59359,-54.27349
2023-08-29 07:14:00+00:00,258.0,5.89,261.0,6.7,12.33,47.59359,-54.27349
2023-08-29 07:24:00+00:00,260.0,5.83,264.0,6.55,12.33,47.59359,-54.27349
2023-08-29 07:34:00+00:00,258.0,6.27,258.0,7.16,12.33,47.59359,-54.27349
2023-08-29 07:44:00+00:00,263.0,5.88,264.0,6.57,12.33,47.59359,-54.27349
2023-08-29 07:54:00+00:00,253.0,5.34,255.0,6.18,12.33,47.59359,-54.27349
2023-08-29 08:04:00+00:00,260.0,4.51,266.0,5.21,12.33,47.59359,-54.27349
2023-08-29 08:14:00+00:00,273.0,4.65,281.0,5.62,12.33,47.59359,-54.27349
2023-08-29 08:24:00+00:00,255.0,2.71,272.0,3.81,12.33,47.59359,-54.27349
2023-08-29 08:34:00+00:00,237.0,2.69,245.0,3.57,12.33,47.59359,-54.27349
2023-08-29 08:44:00+00:00,245.0,3.35,242.0,3.79,12.33,47.59359,-54.27349
2023-08-29 08:54:00+00:00,216.0,3.31,214.0,4.34,12.33,47.59359,-54.27349
2023-08-29 09:04:00+00:00,253.0,3.67,256.0,4.12,12.33,47.59359,-54.27349
2023-08-29 09:14:00+00:00,212.0,4.09,215.0,4.55,12.25,47.59359,-54.27349
2023-08-29 09:24:00+00:00,222.0,3.59,224.0,4.27,12.25,47.59359,-54.27349
2023-08-29 09:34:00+00:00,241.0,4.02,247.0,4.73,12.25,47.59359,-54.27349
2023-08-29 09:44:00+00:00,269.0,4.42,268.0,5.22,12.25,47.59359,-54.27349
2023-08-29 09:54:00+00:00,259.0,5.07,253.0,6.05,12.25,47.59359,-54.27349
2023-08-29 10:04:00+00:00,268.0,5.31,272.0,6.14,12.25,47.59359,-54.27349
2023-08-29 10:14:00+00:00,274.0,6.21,268.0,7.14,13.05,47.59359,-54.27349
2023-08-29 10:24:00+00:00,265.0,5.95,269.0,6.65,13.05,47.59359,-54.27349
2023-08-29 10:34:00+00:00,262.0,6.41,259.0,7.51,13.05,47.59359,-54.27349
2023-08-29 10:44:00+00:00,256.0,6.85,252.0,7.79,13.05,47.59359,-54.27349
2023-08-29 10:54:00+00:00,257.0,6.39,260.0,7.23,13.05,47.59359,-54.27349
2023-08-29 11:04:00+00:00,249.0,5.35,250.0,6.19,13.05,47.59359,-54.27349
2023-08-29 11:14:01+00:00,243.0,4.98,244.0,6.12,13.68,47.59359,-54.27349
2023-08-29 11:24:01+00:00,251.0,4.76,257.0,5.41,13.68,47.59359,-54.27349
2023-08-29 11:34:01+00:00,261.0,5.14,264.0,5.75,13.68,47.59359,-54.27349
2023-08-29 11:44:01+00:00,259.0,5.46,260.0,5.82,13.68,47.59359,-54.27349
2023-08-29 11:54:01+00:00,254.0,4.97,253.0,5.57,13.68,47.59359,-54.27349
2023-08-29 12:04:01+00:00,253.0,4.37,255.0,5.21,13.68,47.59359,-54.27349
2023-08-29 12:14:01+00:00,241.0,5.17,244.0,5.81,13.76,47.59359,-54.27349
2023-08-29 12:24:01+00:00,243.0,5.79,240.0,6.15,13.76,47.59359,-54.27349
2023-08-29 12:34:01+00:00,247.0,6.91,250.0,7.4,13.76,47.59359,-54.27349
2023-08-29 12:44:01+00:00,240.0,7.05,243.0,7.85,13.76,47.59359,-54.27349
2023-08-29 12:54:01+00:00,230.0,7.04,238.0,8.01,13.76,47.59359,-54.27349
2023-08-29 13:04:01+00:00,233.0,7.63,238.0,8.74,13.76,47.59359,-54.27349
2023-08-29 13:14:00+00:00,234.0,7.68,235.0,8.59,14.32,47.59359,-54.27349
2023-08-29 13:24:00+00:00,226.0,7.23,229.0,7.83,14.32,47.59359,-54.27349
2023-08-29 13:34:00+00:00,221.0,5.31,222.0,6.28,14.32,47.59359,-54.27349
2023-08-29 13:44:00+00:00,226.0,4.97,223.0,5.88,14.32,47.59359,-54.27349
2023-08-29 13:54:00+00:00,227.0,5.52,231.0,6.46,14.32,47.59359,-54.27349
2023-08-29 14:04:00+00:00,236.0,6.29,233.0,7.03,14.32,47.59359,-54.27349
2023-08-29 14:14:00+00:00,243.0,7.56,240.0,8.47,14.32,47.59359,-54.27349
2023-08-29 14:24:00+00:00,246.0,7.45,245.0,8.02,14.32,47.59359,-54.27349
2023-08-29 14:34:00+00:00,238.0,6.12,239.0,6.98,14.32,47.59359,-54.27349
2023-08-29 14:44:00+00:00,236.0,5.48,233.0,6.1,14.32,47.59359,-54.27349
2023-08-29 14:54:00+00:00,226.0,5.43,228.0,6.14,14.32,47.59359,-54.27349
2023-08-29 15:04:00+00:00,227.0,4.86,214.0,5.84,14.32,47.59359,-54.27349
2023-08-29 15:14:00+00:00,216.0,4.56,224.0,5.45,13.92,47.59359,-54.27349
2023-08-29 15:24:00+00:00,213.0,6.54,214.0,7.41,13.92,47.59359,-54.27349
2023-08-29 15:34:00+00:00,207.0,6.16,211.0,6.87,13.92,47.59359,-54.27349
2023-08-29 15:44:00+00:00,202.0,8.3,207.0,8.84,13.92,47.59359,-54.27349
2023-08-29 15:54:00+00:00,199.0,8.06,200.0,8.59,13.92,47.59359,-54.27349
2023-08-29 16:04:00+00:00,188.0,7.29,188.0,7.73,13.92,47.59359,-54.27349
2023-08-29 16:14:00+00:00,210.0,7.25,209.0,7.89,14.32,47.59359,-54.27349
2023-08-29 16:24:00+00:00,219.0,6.72,219.0,7.92,14.32,47.59359,-54.27349
2023-08-29 16:34:00+00:00,214.0,5.93,214.0,6.41,14.32,47.59359,-54.27349
2023-08-29 16:44:00+00:00,221.0,5.52,218.0,6.19,14.32,47.59359,-54.27349
2023-08-29 16:54:00+00:00,214.0,6.79,214.0,7.65,14.32,47.59359,-54.27349
2023-08-29 17:04:00+00:00,209.0,6.6,210.0,7.56,14.32,47.59359,-54.27349
2023-08-29 17:14:01+00:00,202.0,6.35,216.0,7.66,14.08,47.59359,-54.27349
2023-08-29 17:24:01+00:00,198.0,6.13,213.0,7.64,14.08,47.59359,-54.27349
2023-08-29 17:34:01+00:00,205.0,5.2,212.0,6.46,14.08,47.59359,-54.27349
2023-08-29 17:44:01+00:00,206.0,4.67,215.0,5.89,14.08,47.59359,-54.27349
2023-08-29 17:54:01+00:00,208.0,4.62,201.0,6.0,14.08,47.59359,-54.27349
2023-08-29 18:04:01+00:00,221.0,4.34,230.0,5.69,14.08,47.59359,-54.27349
2023-08-29 18:14:00+00:00,232.0,5.58,235.0,6.11,14.08,47.59359,-54.27349
2023-08-29 18:24:00+00:00,240.0,6.45,240.0,7.0,14.08,47.59359,-54.27349
2023-08-29 18:34:00+00:00,231.0,5.68,234.0,6.26,14.08,47.59359,-54.27349
2023-08-29 18:44:00+00:00,219.0,4.85,240.0,7.4,14.08,47.59359,-54.27349
2023-08-29 18:54:00+00:00,230.0,5.06,228.0,5.9,14.08,47.59359,-54.27349
2023-08-29 19:04:00+00:00,232.0,5.25,230.0,6.16,14.08,47.59359,-54.27349
2023-08-29 19:14:00+00:00,226.0,5.21,234.0,5.81,13.68,47.59359,-54.27349
2023-08-29 19:24:00+00:00,231.0,5.24,237.0,6.47,13.68,47.59359,-54.27349
2023-08-29 19:34:00+00:00,231.0,5.54,229.0,7.19,13.68,47.59359,-54.27349
2023-08-29 19:44:00+00:00,252.0,4.5,265.0,5.94,13.68,47.59359,-54.27349
2023-08-29 19:54:00+00:00,231.0,7.27,233.0,8.43,13.68,47.59359,-54.27349
2023-08-29 20:04:00+00:00,230.0,6.63,226.0,8.47,13.68,47.59359,-54.27349
2023-08-29 20:14:00+00:00,232.0,6.39,230.0,7.24,13.6,47.59359,-54.27349
2023-08-29 20:24:00+00:00,257.0,7.42,257.0,8.31,13.6,47.59359,-54.27349
2023-08-29 20:34:00+00:00,255.0,6.69,257.0,7.93,13.6,47.59359,-54.27349
2023-08-29 20:44:00+00:00,255.0,7.83,256.0,8.92,13.6,47.59359,-54.27349
2023-08-29 20:54:00+00:00,253.0,6.81,253.0,7.66,13.6,47.59359,-54.27349
2023-08-29 21:04:00+00:00,255.0,6.07,256.0,6.65,13.6,47.59359,-54.27349
2023-08-29 21:14:00+00:00,252.0,6.33,251.0,6.86,13.37,47.59359,-54.27349
2023-08-29 21:24:00+00:00,252.0,6.99,254.0,7.95,13.37,47.59359,-54.27349
2023-08-29 21:34:00+00:00,258.0,6.18,260.0,6.85,13.37,47.59359,-54.27349
2023-08-29 21:44:00+00:00,253.0,5.52,257.0,6.06,13.37,47.59359,-54.27349
2023-08-29 21:54:00+00:00,247.0,5.82,250.0,6.72,13.37,47.59359,-54.27349
2023-08-29 22:04:00+00:00,246.0,6.87,251.0,7.92,13.37,47.59359,-54.27349
2023-08-29 22:14:01+00:00,241.0,6.27,243.0,6.97,12.89,47.59359,-54.27349
2023-08-29 22:24:01+00:00,241.0,6.62,243.0,7.52,12.89,47.59359,-54.27349
2023-08-29 22:34:01+00:00,244.0,6.56,243.0,7.09,12.89,47.59359,-54.27349
2023-08-29 22:44:01+00:00,245.0,6.07,243.0,6.9,12.89,47.59359,-54.27349
2023-08-29 22:54:01+00:00,243.0,6.45,245.0,7.07,12.89,47.59359,-54.27349
2023-08-29 23:04:01+00:00,248.0,6.94,250.0,7.48,12.89,47.59359,-54.27349
2023-08-29 23:14:00+00:00,247.0,6.07,246.0,6.62,12.49,47.59359,-54.27349
2023-08-29 23:24:00+00:00,242.0,6.08,238.0,6.87,12.49,47.59359,-54.27349
2023-08-29 23:34:00+00:00,251.0,6.27,254.0,7.02,12.49,47.59359,-54.27349
2023-08-29 23:44:00+00:00,248.0,6.61,243.0,7.22,12.49,47.59359,-54.27349
2023-08-29 23:54:00+00:00,244.0,6.12,246.0,6.53,12.49,47.59359,-54.27349
